CW9861 Weather Reports


time (UTC)temp
C
wind
direction
speed
KPH
gust
KPH
rain 1hr
cm
rain 24hr
cm
rain mn
cm
humidity
%
barometer
mb
20260906113955 12 251 0.0 1.6 0.00 0.00 0.00 90 1018.5
20260906113455 12 179 0.0 1.6 0.00 0.00 0.00 90 1018.6
20260906112956 12 234 0.0 1.6 0.00 0.00 0.00 90 1018.6
20260906112457 12 32 0.0 0.0 0.00 0.00 0.00 90 1018.5
20260906111956 12 32 0.0 0.0 0.00 0.00 0.00 90 1018.3
20260906111456 12 32 0.0 0.0 0.00 0.00 0.00 90 1018.4
20260906110956 12 32 0.0 0.0 0.00 0.00 0.00 90 1018.3
20260906110456 12 32 0.0 0.0 0.00 0.00 0.00 90 1018.3
20260906105957 12 32 0.0 0.0 0.00 0.00 0.00 90 1018.3
20260906102456 12 37 0.0 0.0 0.00 0.00 0.00 90 1018.3
20260906101956 12 37 0.0 0.0 0.00 0.00 0.00 90 1018.3
20260906101456 12 37 0.0 0.0 0.00 0.00 0.00 90 1018.2
20260906100956 13 34 0.0 0.0 0.00 0.00 0.00 90 1018.1
20260906100455 13 34 0.0 0.0 0.00 0.00 0.00 90 1018.2
20260906095956 13 34 0.0 0.0 0.00 0.00 0.00 90 1018.3
20260906095456 13 34 0.0 0.0 0.00 0.00 0.00 90 1018.3
20260906094958 13 34 0.0 0.0 0.00 0.00 0.00 90 1018.3
20260906094456 13 34 0.0 0.0 0.00 0.00 0.00 90 1018.1
20260906093957 13 34 0.0 0.0 0.00 0.00 0.00 90 1018.1
20260906093457 13 34 0.0 0.0 0.00 0.00 0.00 90 1018.1
20260906092957 13 34 0.0 0.0 0.00 0.00 0.00 90 1018.0
20260906092457 13 34 0.0 0.0 0.00 0.00 0.00 90 1017.9
20260906091957 13 34 0.0 0.0 0.00 0.00 0.00 90 1017.9
20260906091458 13 34 0.0 0.0 0.00 0.00 0.00 90 1017.7
20260906090957 13 34 0.0 0.0 0.00 0.00 0.00 90 1017.8
20260906090457 13 34 0.0 1.6 0.00 0.00 0.00 90 1017.8
20260906085958 13 34 0.0 1.6 0.00 0.00 0.00 90 1017.7
20260906085456 13 34 0.0 1.6 0.00 0.00 0.00 90 1017.7
20260906084957 13 34 0.0 0.0 0.00 0.00 0.00 90 1017.7
20260906084456 13 34 0.0 1.6 0.00 0.00 0.00 90 1017.7
20260906083957 13 34 0.0 1.6 0.00 0.00 0.00 90 1017.8
20260906083456 13 60 0.0 0.0 0.00 0.00 0.00 90 1017.6
20260906082957 13 72 0.0 0.0 0.00 0.00 0.00 90 1017.5
20260906082457 13 72 0.0 0.0 0.00 0.00 0.00 90 1017.4
20260906081956 13 72 0.0 0.0 0.00 0.00 0.00 90 1017.4
20260906081458 14 72 0.0 0.0 0.00 0.00 0.00 90 1017.4
20260906080956 14 72 0.0 0.0 0.00 0.00 0.00 90 1017.4
20260906080458 14 72 0.0 0.0 0.00 0.00 0.00 90 1017.4
20260906075959 14 68 0.0 0.0 0.00 0.00 0.00 90 1017.4
20260906075457 14 84 0.0 3.2 0.00 0.00 0.00 90 1017.5
20260906074957 14 84 0.0 3.2 0.00 0.00 0.00 90 1017.6
20260906074457 14 34 0.0 1.6 0.00 0.00 0.00 90 1017.6
20260906073957 14 75 0.0 1.6 0.00 0.00 0.00 90 1017.4
20260906073457 13 75 0.0 0.0 0.00 0.00 0.00 89 1017.4
20260906072957 13 75 0.0 1.6 0.00 0.00 0.00 89 1017.4
20260906072457 13 75 0.0 1.6 0.00 0.00 0.00 89 1017.3
20260906071957 13 75 0.0 0.0 0.00 0.00 0.00 88 1017.4
20260906071457 13 75 0.0 0.0 0.00 0.00 0.00 88 1017.4
20260906070956 13 75 0.0 0.0 0.00 0.00 0.00 88 1017.5
20260906070457 14 75 0.0 0.0 0.00 0.00 0.00 88 1017.6
20260906065959 14 75 0.0 0.0 0.00 0.00 0.00 88 1017.6
20260906065456 14 75 0.0 0.0 0.00 0.00 0.00 88 1017.6
20260906064956 14 75 0.0 0.0 0.00 0.00 0.00 88 1017.7
20260906064456 14 75 0.0 0.0 0.00 0.00 0.00 88 1017.7
20260906063958 14 75 0.0 0.0 0.00 0.00 0.00 87 1017.7
20260906063456 14 75 0.0 0.0 0.00 0.00 0.00 87 1017.6
20260906062957 15 75 0.0 0.0 0.00 0.00 0.00 87 1017.6
20260906062456 15 75 0.0 0.0 0.00 0.00 0.00 87 1017.5
20260906061957 15 75 0.0 0.0 0.00 0.00 0.00 87 1017.4
20260906054456 15 75 0.0 0.0 0.00 0.00 0.00 87 1017.5
20260906053956 15 75 0.0 0.0 0.00 0.00 0.00 88 1017.4
20260906053456 15 75 0.0 0.0 0.00 0.00 0.00 87 1017.4
20260906052957 16 75 0.0 1.6 0.00 0.00 0.00 87 1017.3
20260906052456 16 75 0.0 1.6 0.00 0.00 0.00 87 1017.1
20260906051955 16 75 0.0 0.0 0.00 0.00 0.00 87 1017.2
20260906051456 16 75 0.0 0.0 0.00 0.00 0.00 87 1017.3
20260906050956 16 75 0.0 0.0 0.00 0.00 0.00 87 1017.3
20260906050456 16 75 0.0 0.0 0.00 0.00 0.00 87 1017.2
20260906045957 16 75 0.0 0.0 0.00 0.00 0.00 87 1017.1
20260906045458 16 75 0.0 0.0 0.00 0.00 0.00 87 1017.0
20260906044957 16 75 0.0 1.6 0.00 0.00 0.00 87 1016.9
20260906044457 16 53 0.0 0.0 0.00 0.00 0.00 87 1016.9
20260906040958 17 276 0.0 1.6 0.00 0.00 0.00 86 1016.6
20260906040457 17 70 0.0 3.2 0.00 0.00 0.00 86 1016.7
20260906040002 17 70 0.0 3.2 0.00 0.00 0.00 86 1016.7
20260906035457 17 78 0.0 1.6 0.00 0.00 0.00 85 1016.7
20260906034958 17 78 0.0 0.0 0.00 0.00 0.00 85 1016.7
20260906034459 17 78 0.0 0.0 0.00 0.00 0.00 85 1016.7
20260906033958 17 78 0.0 0.0 0.00 0.00 0.00 85 1016.5
20260906033457 17 78 0.0 1.6 0.00 0.00 0.00 85 1016.4
20260906032957 17 78 0.0 1.6 0.00 0.00 0.00 85 1016.4
20260906032501 17 78 0.0 1.6 0.00 0.00 0.00 85 1016.6
20260906031958 17 78 0.0 1.6 0.00 0.00 0.00 85 1016.4
20260906031458 17 78 0.0 1.6 0.00 0.00 0.00 84 1016.4
20260906030957 17 78 0.0 1.6 0.00 0.00 0.00 84 1016.4
20260906030458 17 77 0.0 0.0 0.00 0.00 0.00 84 1016.2
20260906025957 18 91 0.0 1.6 0.00 0.00 0.00 84 1016.2
20260906025457 18 105 0.0 1.6 0.00 0.00 0.00 84 1016.2
20260906024958 18 105 0.0 1.6 0.00 0.00 0.00 84 1016.1
20260906024457 18 105 0.0 1.6 0.00 0.00 0.00 84 1016.3
20260906023957 18 50 0.0 1.6 0.00 0.00 0.00 84 1016.1
20260906023457 18 50 0.0 1.6 0.00 0.00 0.00 84 1016.2
20260906022958 18 307 0.0 1.6 0.00 0.00 0.00 84 1016.2
20260906015458 18 83 0.0 0.0 0.00 0.00 0.00 83 1015.9
20260906014957 18 83 0.0 0.0 0.00 0.00 0.00 83 1015.7
20260906014457 19 83 0.0 0.0 0.00 0.00 0.00 83 1015.7
20260906013958 19 83 0.0 0.0 0.00 0.00 0.00 82 1015.7
20260906013457 19 83 0.0 0.0 0.00 0.00 0.00 82 1015.7
20260906012957 19 83 0.0 0.0 0.00 0.00 0.00 82 1015.7
20260906012458 20 83 0.0 0.0 0.00 0.00 0.00 82 1015.6
20260906011957 20 83 0.0 0.0 0.00 0.00 0.00 82 1015.5
20260906011458 20 83 0.0 0.0 0.00 0.00 0.00 82 1015.3
20260906010957 20 83 0.0 0.0 0.00 0.00 0.00 80 1015.3
20260906010457 20 83 0.0 0.0 0.00 0.00 0.00 80 1015.3
20260906005957 20 83 0.0 0.0 0.00 0.00 0.00 80 1015.2
20260906005457 21 83 0.0 0.0 0.00 0.00 0.00 81 1015.1
20260906004957 21 83 0.0 0.0 0.00 0.00 0.00 80 1015.0
20260906004456 21 83 0.0 0.0 0.00 0.00 0.00 79 1014.9
20260906003956 21 83 0.0 0.0 0.00 0.00 0.00 79 1014.9
20260906003456 21 83 0.0 0.0 0.00 0.00 0.00 79 1015.0
20260906002956 22 83 0.0 0.0 0.00 0.00 0.00 79 1015.0
20260906002457 22 83 0.0 0.0 0.00 0.00 0.00 79 1015.0
20260906001956 22 83 0.0 0.0 0.00 0.00 0.00 79 1015.0
20260906001457 22 83 0.0 0.0 0.00 0.00 0.00 79 1015.0
20260906000956 22 83 0.0 0.0 0.00 0.00 0.00 78 1015.0
20260906000456 22 83 0.0 0.0 0.00 0.00 0.00 78 1015.2
20260905235957 22 83 0.0 1.6 0.00 0.00 0.00 78 1015.1
20260905235457 22 83 0.0 1.6 0.00 0.00 0.00 77 1015.0
20260905234957 23 83 0.0 3.2 0.00 0.00 0.00 77 1014.9
20260905234457 23 86 1.6 3.2 0.00 0.00 0.00 76 1014.9
20260905233957 23 91 0.0 1.6 0.00 0.00 0.00 77 1015.0
20260905233457 23 68 0.0 1.6 0.00 0.00 0.00 77 1015.0
20260905232957 23 68 0.0 1.6 0.00 0.00 0.00 77 1015.0
20260905232457 23 77 0.0 1.6 0.00 0.00 0.00 78 1015.0
20260905231957 23 77 0.0 1.6 0.00 0.00 0.00 77 1015.1
20260905231457 23 93 0.0 3.2 0.00 0.00 0.00 77 1015.0
20260905230958 23 86 0.0 1.6 0.00 0.00 0.00 77 1015.0
20260905230457 23 86 0.0 4.8 0.00 0.00 0.00 77 1014.9
20260905225957 23 54 0.0 3.2 0.00 0.00 0.00 76 1014.8
20260905225456 23 78 1.6 3.2 0.00 0.00 0.00 75 1014.7
20260905224957 24 70 0.0 3.2 0.00 0.00 0.00 75 1014.7
20260905224456 24 74 0.0 4.8 0.00 0.00 0.00 74 1014.7
20260905223956 24 48 0.0 6.4 0.00 0.00 0.00 73 1014.6
20260905223456 24 23 3.2 6.4 0.00 0.00 0.00 72 1014.6
20260905222956 25 78 0.0 3.2 0.00 0.00 0.00 74 1014.5
20260905222456 25 66 1.6 6.4 0.00 0.00 0.00 73 1014.5
20260905221956 25 59 0.0 6.4 0.00 0.00 0.00 73 1014.6
20260905221457 25 357 1.6 6.4 0.00 0.00 0.00 72 1014.5
20260905220956 25 89 1.6 6.4 0.00 0.00 0.00 73 1014.4
20260905220456 25 120 1.6 6.4 0.00 0.00 0.00 72 1014.3
20260905215957 25 40 1.6 4.8 0.00 0.00 0.00 75 1014.4
20260905215456 25 72 1.6 3.2 0.00 0.00 0.00 77 1014.3
20260905214956 25 79 0.0 4.8 0.00 0.00 0.00 76 1014.2
20260905214457 24 89 1.6 8.0 0.00 0.00 0.00 77 1014.2
20260905213956 24 66 1.6 8.0 0.00 0.00 0.00 75 1014.1
20260905213456 25 86 1.6 4.8 0.00 0.00 0.00 76 1014.2
20260905212956 25 78 1.6 4.8 0.00 0.00 0.00 75 1014.2
20260905212456 26 59 1.6 4.8 0.00 0.00 0.00 71 1014.2
20260905211955 26 53 1.6 4.8 0.00 0.00 0.00 72 1014.2
20260905211456 26 64 1.6 9.7 0.00 0.00 0.00 69 1014.1
20260905210956 26 58 3.2 9.7 0.00 0.00 0.00 68 1014.1
20260905210456 26 49 1.6 6.4 0.00 0.00 0.00 70 1014.1
20260905205959 26 137 0.0 3.2 0.00 0.00 0.00 74 1014.1
20260905205457 26 70 1.6 4.8 0.00 0.00 0.00 72 1014.1
20260905204958 26 100 1.6 4.8 0.00 0.00 0.00 75 1014.0
20260905204457 26 96 1.6 11.3 0.00 0.00 0.00 74 1014.1
20260905200957 25 58 1.6 4.8 0.00 0.00 0.00 77 1014.5
20260905200457 26 84 1.6 4.8 0.00 0.00 0.00 73 1014.4
20260905195958 26 63 1.6 4.8 0.00 0.00 0.00 75 1014.4
20260905195458 25 70 3.2 8.0 0.00 0.00 0.00 77 1014.4
20260905194957 25 107 3.2 8.0 0.00 0.00 0.00 77 1014.4
20260905194457 24 58 0.0 4.8 0.00 0.00 0.00 78 1014.4
20260905193957 24 102 1.6 4.8 0.00 0.00 0.00 80 1014.5
20260905193457 24 110 0.0 3.2 0.00 0.00 0.00 80 1014.5
20260905192957 24 66 0.0 4.8 0.00 0.00 0.00 81 1014.6
20260905192456 24 84 1.6 4.8 0.00 0.00 0.00 80 1014.5
20260905191957 24 80 1.6 6.4 0.00 0.00 0.00 82 1014.6
20260905191458 24 82 3.2 6.4 0.00 0.00 0.00 79 1014.7
20260905183458 23 23 0.0 1.6 0.00 0.00 0.00 84 1015.1
20260905182957 23 23 0.0 1.6 0.00 0.00 0.00 84 1015.1
20260905182457 22 68 0.0 0.0 0.00 0.00 0.00 84 1014.9
20260905181957 22 68 0.0 0.0 0.00 0.00 0.00 85 1015.0
20260905181457 22 68 0.0 0.0 0.00 0.00 0.00 85 1015.0
20260905180957 22 68 0.0 0.0 0.00 0.00 0.00 86 1015.0
20260905180458 22 68 0.0 0.0 0.00 0.00 0.00 84 1014.9
20260905175956 22 68 0.0 0.0 0.00 0.00 0.00 85 1015.0
20260905175457 22 68 0.0 1.6 0.00 0.00 0.00 86 1015.0
20260905174956 22 68 0.0 1.6 0.00 0.00 0.00 85 1015.0
20260905174456 22 78 0.0 1.6 0.00 0.00 0.00 85 1015.0
20260905173956 22 59 0.0 1.6 0.00 0.00 0.00 85 1014.9
20260905165958 21 40 0.0 4.8 0.00 0.00 0.00 86 1014.8
20260905165457 21 65 1.6 4.8 0.00 0.03 0.00 85 1014.9
20260905164957 21 69 0.0 3.2 0.00 0.03 0.00 86 1014.9
20260905164458 22 78 0.0 4.8 0.00 0.03 0.00 86 1014.9
20260905163957 22 59 1.6 4.8 0.00 0.03 0.00 85 1015.0
20260905163457 22 85 1.6 4.8 0.00 0.03 0.00 86 1015.0
20260905162957 22 22 0.0 3.2 0.00 0.03 0.00 85 1014.9
20260905162457 22 59 0.0 4.8 0.00 0.03 0.00 86 1014.8
20260905161957 22 57 0.0 4.8 0.00 0.03 0.00 85 1014.8
20260905161457 22 57 1.6 4.8 0.00 0.03 0.00 85 1014.8
20260905160956 22 26 1.6 4.8 0.00 0.03 0.00 85 1014.8
20260905160456 22 142 1.6 4.8 0.00 0.03 0.00 85 1014.7
20260905155957 22 32 1.6 3.2 0.00 0.08 0.00 85 1014.6
20260905155457 22 65 0.0 3.2 0.00 0.08 0.00 85 1014.7
20260905154957 22 97 1.6 3.2 0.00 0.08 0.00 86 1014.7
20260905154458 22 39 1.6 4.8 0.00 0.08 0.00 85 1014.7
20260905153957 21 58 0.0 4.8 0.00 0.08 0.00 87 1014.8
20260905153457 21 77 0.0 8.0 0.00 0.08 0.00 87 1014.8
20260905152956 21 3 1.6 9.7 0.00 0.08 0.00 87 1014.8
20260905152457 21 118 1.6 9.7 0.00 0.08 0.00 86 1014.8
20260905151957 21 95 1.6 8.0 0.00 0.08 0.00 86 1014.7
20260905151457 21 31 1.6 8.0 0.00 0.08 0.00 86 1014.7
20260905150958 21 78 0.0 6.4 0.00 0.08 0.00 87 1014.7
20260905150457 21 31 1.6 6.4 0.00 0.08 0.00 87 1014.6
20260905145959 21 1 1.6 6.4 0.00 0.08 0.00 87 1014.5
20260905145457 21 21 1.6 4.8 0.00 0.41 0.00 88 1014.4
20260905144957 21 88 1.6 4.8 0.00 0.41 0.00 88 1014.3
20260905144457 21 68 1.6 6.4 0.00 0.41 0.00 88 1014.3
20260905143956 21 82 1.6 4.8 0.00 0.41 0.00 88 1014.4
20260905143456 21 95 1.6 4.8 0.00 0.41 0.00 88 1014.4
20260905142957 20 80 1.6 8.0 0.00 0.41 0.00 88 1014.3
20260905142457 20 12 1.6 8.0 0.00 0.41 0.00 88 1014.4
20260905134956 19 61 1.6 4.8 0.00 0.91 0.00 89 1014.3
20260905134459 19 66 1.6 4.8 0.00 0.91 0.00 89 1014.3
20260905133957 19 68 1.6 4.8 0.00 0.91 0.00 89 1014.3
20260905133457 19 72 1.6 9.7 0.00 0.91 0.00 89 1014.3
20260905132957 19 66 1.6 9.7 0.00 0.91 0.00 89 1014.2
20260905132456 19 69 1.6 4.8 0.00 0.91 0.00 89 1014.3
20260905131957 19 50 1.6 4.8 0.00 0.91 0.00 89 1014.3
20260905131457 19 71 1.6 4.8 0.00 0.91 0.00 89 1014.2
20260905130957 18 64 3.2 6.4 0.00 0.91 0.00 89 1014.2
20260905130457 18 90 1.6 8.0 0.00 0.91 0.00 89 1014.2
20260905125957 18 70 1.6 8.0 0.00 1.32 0.00 89 1014.2
20260905125456 18 60 1.6 4.8 0.00 1.32 0.00 89 1014.2
20260905124957 18 74 3.2 4.8 0.00 1.32 0.00 89 1014.1
20260905124457 18 74 1.6 4.8 0.00 1.32 0.00 90 1014.0
20260905123956 18 64 1.6 4.8 0.00 1.32 0.00 90 1014.0
20260905123458 18 63 1.6 4.8 0.00 1.32 0.00 90 1014.0
20260905122957 18 74 3.2 9.7 0.00 1.32 0.00 90 1013.9
20260905122457 18 94 4.8 9.7 0.00 1.32 0.00 90 1013.9
20260905122000 18 72 1.6 4.8 0.00 1.32 0.00 90 1013.8
20260905121457 18 53 0.0 6.4 0.00 1.32 0.00 90 1013.8
20260905120957 18 47 1.6 6.4 0.00 1.32 0.00 90 1013.7
20260905120457 18 61 1.6 3.2 0.00 1.32 0.00 90 1013.6
20260905115957 18 75 1.6 4.8 0.00 2.87 0.00 90 1013.6
20260905115457 18 86 1.6 6.4 0.00 2.87 0.00 90 1013.6
20260905114957 18 53 1.6 6.4 0.00 2.87 0.00 90 1013.5
20260905114457 18 81 1.6 6.4 0.00 2.87 0.00 90 1013.3